Location: Unspecified
(0.0000°N, 0.0000°E)
Time: 22:43:14
(UTC+00:00)

NTS 1 - Pass Details

Date: 15 June 2023
Orbit: 13478 x 13741 km, 124.8° (Epoch: 24 September)

Event Time Altitude Azimuth Distance (km) Brightness Sun altitude
Rises 21:03:19 0° 113° (ESE) 19,079 ? -41.1°
Enters shadow 21:14:25 - 122° (ESE) 18,358 ? -43.4°
Exits shadow 21:38:15 18° 144° (SE) 17,221 ? -48.3°
Maximum altitude 21:56:46 21° 165° (SSE) 16,903 ? -52.0°
Drops below altitude 10° 22:32:00 10° 202° (SSW) 17,882 ? -58.3°
Sets 22:48:39 0° 214° (SW) 18,931 ? -60.9°
